This demonstration page uses our WeatherBlox Daily Observations layout. Learn more.

Left ArrowRight Arrow

41.55636, -103.73856

Hourly Observations for December 6, 2020

Temp ( °F °C ) Dew Point ( °F °C ) Humidity (%) Winds ( mph kmh ) Pressure ( in mb ) Visibility ( mi km ) Precip ( " mm )
12:58 am 00:58 Clear 26 -3.6 11 -11.5 55 55 NW 6 9 30.29 1026 10 16 0.00 0.00
1:58 am 01:58 Clear 26 -3.5 12 -11.2 56 56 W 6 9 30.28 1026 10 16 0.00 0.00
2:58 am 02:58 Clear 25 -3.9 12 -10.9 59 59 W 3 6 30.27 1025 10 16 0.00 0.00
3:58 am 03:58 Clear 28 -2.4 12 -11 52 52 WSW 5 7 30.26 1025 10 16 0.00 0.00
4:58 am 04:58 Clear 26 -3.5 12 -11 56 56 WSW 8 13 30.27 1025 10 16 0.00 0.00
5:58 am 05:58 Clear 29 -1.9 11 -11.4 49 49 W 5 7 30.28 1025 10 16 0.00 0.00
6:58 am 06:58 Clear 26 -3.6 11 -11.6 54 54 NNW 6 9 30.28 1025 10 16 0.00 0.00
7:58 am 07:58 Sunny 26 -3.5 12 -11.3 55 55 SW 6 9 30.30 1026 10 16 0.00 0.00
8:58 am 08:58 Sunny 37 2.9 15 -9.5 40 40 W 5 7 30.29 1026 10 16 0.00 0.00
9:58 am 09:58 Sunny 44 6.8 12 -11.2 27 27 NW 9 15 30.29 1026 10 16 0.00 0.00
10:58 am 10:58 Sunny 49 9.5 10 -12 21 21 NW 13 20 30.26 1025 10 16 0.00 0.00
11:58 am 11:58 Sunny 54 12.2 8 -13.2 16 16 NW 15 24 30.23 1024 10 16 0.00 0.00
12:58 pm 12:58 Sunny 57 13.7 7 -13.9 13 13 WNW 12 19 30.20 1023 10 16 0.00 0.00
1:58 pm 13:58 Sunny 58 14.4 6 -14.3 12 12 NNW 14 22 30.20 1023 10 16 0.00 0.00
2:58 pm 14:58 Sunny 57 13.7 6 -14.2 13 13 NNW 13 20 30.21 1023 10 16 0.00 0.00
3:58 pm 15:58 Sunny 52 11.1 5 -14.9 15 15 WNW 8 13 30.23 1024 10 16 0.00 0.00
4:58 pm 16:58 Clear 46 8 6 -14.4 19 19 WNW 7 11 30.27 1025 10 16 0.00 0.00
5:58 pm 17:58 Clear 41 5 6 -14.5 23 23 WSW 6 9 30.27 1025 10 16 0.00 0.00
6:58 pm 18:58 Clear 38 3.4 7 -13.8 27 27 WSW 7 11 30.32 1027 10 16 0.00 0.00
7:58 pm 19:58 Clear 37 2.8 8 -13.4 30 30 WSW 8 13 30.33 1027 10 16 0.00 0.00
8:58 pm 20:58 Clear 37 2.9 8 -13.1 30 30 W 6 9 30.30 1026 10 16 0.00 0.00
9:58 pm 21:58 Clear 37 2.8 9 -12.8 31 31 W 7 11 30.29 1026 10 16 0.00 0.00
10:58 pm 22:58 Clear 37 2.9 9 -12.6 31 31 W 7 11 30.29 1026 10 16 0.00 0.00
11:58 pm 23:58 Clear 35 1.7 9 -12.6 34 34 W 8 13 30.29 1026 10 16 0.00 0.00

Powered by AerisWeather